| time (UTC) | temp F | wind direction | speed knots | gust knots | rain 1hr in | rain 24hr in | rain mn in | humidity % | barometer mb |
| 20260504204712 | 80 | 156 | 3.5 | 0.0 | 0.00 | 0.00 | 0.00 | 61 | 1012.3 |
| 20260504204005 | 80 | 98 | 3.5 | 0.0 | 0.00 | 0.00 | 0.00 | 62 | 1012.7 |
| 20260504203505 | 80 | 29 | 11.3 | 0.0 | 0.00 | 0.00 | 0.00 | 60 | 1013.0 |
| 20260504203211 | 80 | 88 | 7.8 | 0.0 | 0.00 | 0.00 | 0.00 | 61 | 1012.7 |
| 20260504202505 | 79 | 81 | 3.5 | 0.0 | 0.00 | 0.00 | 0.00 | 63 | 1012.7 |
| 20260504202211 | 80 | 51 | 3.5 | 0.0 | 0.00 | 0.00 | 0.00 | 62 | 1012.7 |
| 20260504201505 | 80 | 54 | 7.8 | 0.0 | 0.00 | 0.00 | 0.00 | 62 | 1013.3 |
| 20260504201005 | 79 | 119 | 0.0 | 0.0 | 0.00 | 0.00 | 0.00 | 63 | 1013.3 |
| 20260504200505 | 79 | 35 | 0.0 | 0.0 | 0.00 | 0.00 | 0.00 | 63 | 1013.3 |
| 20260504200005 | 79 | 107 | 15.6 | 0.0 | 0.00 | 0.00 | 0.00 | 63 | 1013.3 |
| 20260504195505 | 79 | 23 | 7.8 | 0.0 | 0.00 | 0.00 | 0.00 | 63 | 1013.3 |
| 20260504195005 | 79 | 85 | 7.8 | 0.0 | 0.00 | 0.00 | 0.00 | 63 | 1013.3 |
| 20260504194505 | 80 | 72 | 7.8 | 0.0 | 0.00 | 0.00 | 0.00 | 63 | 1013.3 |
| 20260504194005 | 80 | 163 | 7.8 | 0.0 | 0.00 | 0.00 | 0.00 | 62 | 1013.3 |
| 20260504193504 | 79 | 112 | 7.8 | 0.0 | 0.00 | 0.00 | 0.00 | 63 | 1013.3 |
| 20260504193005 | 78 | 138 | 7.8 | 0.0 | 0.00 | 0.00 | 0.00 | 64 | 1013.3 |
| 20260504192505 | 78 | 94 | 11.3 | 0.0 | 0.00 | 0.00 | 0.00 | 65 | 1013.3 |
| 20260504192005 | 78 | 100 | 3.5 | 0.0 | 0.00 | 0.00 | 0.00 | 64 | 1013.3 |
| 20260504191505 | 78 | 193 | 3.5 | 0.0 | 0.00 | 0.00 | 0.00 | 64 | 1013.3 |
| 20260504191005 | 78 | 108 | 11.3 | 0.0 | 0.00 | 0.00 | 0.00 | 65 | 1013.3 |
| 20260504190505 | 78 | 144 | 3.5 | 0.0 | 0.00 | 0.00 | 0.00 | 65 | 1013.7 |
| 20260504190005 | 79 | 129 | 11.3 | 0.0 | 0.00 | 0.00 | 0.00 | 64 | 1013.3 |
| 20260504185505 | 78 | 118 | 3.5 | 0.0 | 0.00 | 0.00 | 0.00 | 64 | 1013.3 |
| 20260504185005 | 78 | 154 | 7.8 | 0.0 | 0.00 | 0.00 | 0.00 | 64 | 1013.7 |
| 20260504184505 | 78 | 136 | 0.0 | 0.0 | 0.00 | 0.00 | 0.00 | 64 | 1013.7 |
| 20260504184005 | 78 | 75 | 11.3 | 0.0 | 0.00 | 0.00 | 0.00 | 64 | 1013.7 |
| 20260504183505 | 77 | 54 | 11.3 | 0.0 | 0.00 | 0.00 | 0.00 | 64 | 1013.7 |
| 20260504183005 | 77 | 114 | 11.3 | 0.0 | 0.00 | 0.00 | 0.00 | 65 | 1013.7 |
| 20260504182712 | 77 | 52 | 7.8 | 0.0 | 0.00 | 0.00 | 0.00 | 65 | 1013.7 |
| 20260504182005 | 77 | 71 | 15.6 | 0.0 | 0.00 | 0.00 | 0.00 | 65 | 1014.0 |
| 20260504181505 | 77 | 68 | 7.8 | 0.0 | 0.00 | 0.00 | 0.00 | 65 | 1014.0 |
| 20260504181005 | 77 | 43 | 7.8 | 0.0 | 0.00 | 0.00 | 0.00 | 65 | 1014.0 |
| 20260504180711 | 77 | 68 | 7.8 | 0.0 | 0.00 | 0.00 | 0.00 | 66 | 1014.0 |
| 20260504180005 | 77 | 120 | 3.5 | 0.0 | 0.00 | 0.00 | 0.00 | 66 | 1014.0 |
| 20260504175505 | 77 | 98 | 7.8 | 0.0 | 0.00 | 0.00 | 0.00 | 65 | 1014.0 |
| 20260504175005 | 78 | 87 | 11.3 | 0.0 | 0.00 | 0.00 | 0.00 | 64 | 1014.0 |
| 20260504174505 | 77 | 109 | 3.5 | 0.0 | 0.00 | 0.00 | 0.00 | 64 | 1014.0 |
| 20260504174005 | 77 | 126 | 3.5 | 0.0 | 0.00 | 0.00 | 0.00 | 65 | 1014.0 |
| 20260504173505 | 77 | 64 | 0.0 | 0.0 | 0.00 | 0.00 | 0.00 | 64 | 1014.0 |
| 20260504173005 | 78 | 170 | 0.0 | 0.0 | 0.00 | 0.00 | 0.00 | 64 | 1014.4 |
| 20260504172505 | 77 | 42 | 3.5 | 0.0 | 0.00 | 0.00 | 0.00 | 63 | 1014.4 |
| 20260504172212 | 77 | 66 | 3.5 | 0.0 | 0.00 | 0.00 | 0.00 | 65 | 1014.4 |
| 20260504171505 | 77 | 168 | 15.6 | 0.0 | 0.00 | 0.00 | 0.00 | 65 | 1014.7 |
| 20260504171005 | 77 | 94 | 11.3 | 0.0 | 0.00 | 0.00 | 0.00 | 64 | 1014.7 |
| 20260504170505 | 77 | 207 | 11.3 | 0.0 | 0.00 | 0.00 | 0.00 | 64 | 1014.7 |
| 20260504151005 | 76 | 136 | 15.6 | 0.0 | 0.00 | 0.00 | 0.00 | 68 | 1015.4 |
| 20260504150505 | 76 | 124 | 15.6 | 0.0 | 0.00 | 0.00 | 0.00 | 68 | 1015.4 |
| 20260504150211 | 76 | 152 | 11.3 | 0.0 | 0.00 | 0.00 | 0.00 | 69 | 1015.4 |
| 20260504141213 | 75 | 177 | 7.8 | 0.0 | 0.00 | 0.00 | 0.00 | 72 | 1015.4 |
| 20260504140505 | 74 | 98 | 0.0 | 0.0 | 0.00 | 0.00 | 0.00 | 74 | 1015.4 |
| 20260504130505 | 71 | 91 | 0.0 | 0.0 | 0.00 | 0.00 | 0.00 | 81 | 1015.7 |
| 20260504110711 | 68 | 117 | 3.5 | 0.0 | 0.00 | 0.00 | 0.00 | 86 | 1015.4 |
| 20260504100505 | 68 | 119 | 3.5 | 0.0 | 0.00 | 0.00 | 0.00 | 85 | 1015.7 |
| 20260504082005 | 68 | 67 | 0.0 | 0.0 | 0.00 | 0.00 | 0.00 | 83 | 1016.7 |
| 20260504081505 | 68 | 65 | 0.0 | 0.0 | 0.00 | 0.00 | 0.00 | 83 | 1016.7 |
| 20260504081005 | 68 | 79 | 0.0 | 0.0 | 0.00 | 0.00 | 0.00 | 83 | 1016.7 |
| 20260504080504 | 68 | 94 | 0.0 | 0.0 | 0.00 | 0.00 | 0.00 | 83 | 1016.7 |
| 20260504050505 | 69 | 67 | 3.5 | 0.0 | 0.00 | 0.00 | 0.00 | 75 | 1018.8 |
| 20260504045505 | 69 | 71 | 3.5 | 0.0 | 0.00 | 0.00 | 0.00 | 75 | 1019.5 |
| 20260504045005 | 69 | 59 | 7.8 | 0.0 | 0.00 | 0.00 | 0.00 | 74 | 1019.5 |
| 20260504044505 | 69 | 92 | 0.0 | 0.0 | 0.00 | 0.00 | 0.00 | 74 | 1019.5 |
| 20260504044005 | 69 | 71 | 3.5 | 0.0 | 0.00 | 0.00 | 0.00 | 73 | 1019.5 |
| 20260504043505 | 69 | 80 | 3.5 | 0.0 | 0.00 | 0.00 | 0.00 | 73 | 1019.5 |
| 20260504043211 | 69 | 76 | 3.5 | 0.0 | 0.00 | 0.00 | 0.00 | 73 | 1019.5 |
| 20260504042505 | 69 | 36 | 3.5 | 0.0 | 0.00 | 0.00 | 0.00 | 73 | 1019.8 |
| 20260504042005 | 69 | 95 | 7.8 | 0.0 | 0.00 | 0.00 | 0.00 | 72 | 1019.5 |
| 20260504041505 | 69 | 54 | 7.8 | 0.0 | 0.00 | 0.00 | 0.00 | 72 | 1019.8 |
| 20260504041005 | 69 | 74 | 3.5 | 0.0 | 0.00 | 0.00 | 0.00 | 72 | 1019.5 |
| 20260504040505 | 69 | 92 | 0.0 | 0.0 | 0.00 | 0.00 | 0.00 | 72 | 1019.8 |
| 20260504040005 | 69 | 81 | 0.0 | 0.0 | 0.00 | 0.00 | 0.00 | 72 | 1019.8 |
| 20260504035505 | 70 | 59 | 3.5 | 0.0 | 0.00 | 0.00 | 0.00 | 71 | 1019.5 |
| 20260504035005 | 70 | 61 | 7.8 | 0.0 | 0.00 | 0.00 | 0.00 | 71 | 1020.1 |
| 20260504034505 | 70 | 86 | 7.8 | 0.0 | 0.00 | 0.00 | 0.00 | 70 | 1019.8 |
| 20260504034005 | 70 | 64 | 0.0 | 0.0 | 0.00 | 0.00 | 0.00 | 70 | 1019.8 |
| 20260504033712 | 70 | 75 | 3.5 | 0.0 | 0.00 | 0.00 | 0.00 | 70 | 1019.8 |
| 20260504033005 | 70 | 78 | 0.0 | 0.0 | 0.00 | 0.00 | 0.00 | 70 | 1019.8 |
| 20260504032505 | 70 | 75 | 0.0 | 0.0 | 0.00 | 0.00 | 0.00 | 69 | 1019.5 |
| 20260504032005 | 70 | 76 | 3.5 | 0.0 | 0.00 | 0.00 | 0.00 | 69 | 1019.8 |
| 20260504031505 | 70 | 79 | 0.0 | 0.0 | 0.00 | 0.00 | 0.00 | 68 | 1019.5 |
| 20260504031005 | 70 | 76 | 0.0 | 0.0 | 0.00 | 0.00 | 0.00 | 68 | 1019.5 |
| 20260504030505 | 71 | 69 | 0.0 | 0.0 | 0.00 | 0.00 | 0.00 | 67 | 1019.5 |
| 20260504030213 | 71 | 85 | 3.5 | 0.0 | 0.00 | 0.00 | 0.00 | 67 | 1019.5 |
| 20260504025712 | 71 | 55 | 0.0 | 0.0 | 0.00 | 0.00 | 0.00 | 66 | 1019.5 |
| 20260504025005 | 71 | 77 | 3.5 | 0.0 | 0.00 | 0.00 | 0.00 | 66 | 1019.1 |
| 20260504024505 | 71 | 85 | 7.8 | 0.0 | 0.00 | 0.00 | 0.00 | 65 | 1019.1 |
| 20260504024005 | 71 | 66 | 0.0 | 0.0 | 0.00 | 0.00 | 0.00 | 65 | 1019.5 |
| 20260504023505 | 71 | 66 | 0.0 | 0.0 | 0.00 | 0.00 | 0.00 | 65 | 1019.5 |
| 20260504023005 | 71 | 52 | 3.5 | 0.0 | 0.00 | 0.00 | 0.00 | 64 | 1019.5 |
| 20260504022504 | 71 | 91 | 0.0 | 0.0 | 0.00 | 0.00 | 0.00 | 64 | 1019.1 |
| 20260504022005 | 71 | 28 | 3.5 | 0.0 | 0.00 | 0.00 | 0.00 | 63 | 1019.1 |
| 20260504021714 | 71 | 121 | 11.3 | 0.0 | 0.00 | 0.00 | 0.00 | 63 | 1018.8 |
| 20260504021212 | 71 | 89 | 7.8 | 0.0 | 0.00 | 0.00 | 0.00 | 62 | 1019.1 |
| 20260504020713 | 71 | 52 | 0.0 | 0.0 | 0.00 | 0.00 | 0.00 | 61 | 1019.1 |
| 20260504020213 | 71 | 46 | 3.5 | 0.0 | 0.00 | 0.00 | 0.00 | 61 | 1019.1 |
| 20260504015505 | 71 | 114 | 3.5 | 0.0 | 0.00 | 0.00 | 0.00 | 60 | 1018.8 |
| 20260504015005 | 72 | 81 | 7.8 | 0.0 | 0.00 | 0.00 | 0.00 | 59 | 1018.8 |
| 20260504014505 | 72 | 49 | 7.8 | 0.0 | 0.00 | 0.00 | 0.00 | 59 | 1018.8 |
| 20260504014005 | 72 | 79 | 0.0 | 0.0 | 0.00 | 0.00 | 0.00 | 58 | 1018.8 |
| 20260504013713 | 72 | 47 | 0.0 | 0.0 | 0.00 | 0.00 | 0.00 | 58 | 1018.4 |
| 20260504013005 | 72 | 42 | 7.8 | 0.0 | 0.00 | 0.00 | 0.00 | 56 | 1018.4 |
| 20260504012711 | 73 | 20 | 3.5 | 0.0 | 0.00 | 0.00 | 0.00 | 56 | 1018.4 |
| 20260504012212 | 73 | 35 | 7.8 | 0.0 | 0.00 | 0.00 | 0.00 | 56 | 1018.4 |
| 20260504011505 | 73 | 63 | 3.5 | 0.0 | 0.00 | 0.00 | 0.00 | 55 | 1018.4 |
| 20260504011005 | 73 | 70 | 3.5 | 0.0 | 0.00 | 0.00 | 0.00 | 54 | 1018.4 |
| 20260504010505 | 73 | 19 | 7.8 | 0.0 | 0.00 | 0.00 | 0.00 | 54 | 1018.4 |
| 20260504010005 | 74 | 91 | 15.6 | 0.0 | 0.00 | 0.00 | 0.00 | 54 | 1018.4 |
| 20260504005505 | 74 | 42 | 3.5 | 0.0 | 0.00 | 0.00 | 0.00 | 53 | 1018.4 |
| 20260504005005 | 74 | 65 | 0.0 | 0.0 | 0.00 | 0.00 | 0.00 | 53 | 1018.8 |
| 20260504004505 | 74 | 66 | 11.3 | 0.0 | 0.00 | 0.00 | 0.00 | 53 | 1018.4 |
| 20260504004004 | 74 | 53 | 3.5 | 0.0 | 0.00 | 0.00 | 0.00 | 52 | 1018.4 |
| 20260504003505 | 74 | 14 | 11.3 | 0.0 | 0.00 | 0.00 | 0.00 | 51 | 1018.4 |
| 20260504002505 | 74 | 32 | 11.3 | 0.0 | 0.00 | 0.00 | 0.00 | 51 | 1018.4 |
| 20260504002005 | 75 | 36 | 11.3 | 0.0 | 0.00 | 0.00 | 0.00 | 50 | 1018.4 |
| 20260504001505 | 75 | 66 | 3.5 | 0.0 | 0.00 | 0.00 | 0.00 | 50 | 1018.4 |
| 20260504001005 | 76 | 58 | 15.6 | 0.0 | 0.00 | 0.00 | 0.00 | 49 | 1018.4 |
| 20260504000505 | 76 | 146 | 7.8 | 0.0 | 0.00 | 0.00 | 0.00 | 49 | 1018.4 |
| 20260504000005 | 76 | 102 | 7.8 | 0.0 | 0.00 | 0.00 | 0.00 | 49 | 1018.1 |
| 20260503235505 | 76 | 49 | 7.8 | 0.0 | 0.00 | 0.00 | 0.00 | 49 | 1018.1 |
| 20260503235212 | 77 | 76 | 0.0 | 0.0 | 0.00 | 0.00 | 0.00 | 49 | 1018.4 |
| 20260503234713 | 77 | 64 | 3.5 | 0.0 | 0.00 | 0.00 | 0.00 | 49 | 1018.1 |
| 20260503234005 | 76 | 80 | 3.5 | 0.0 | 0.00 | 0.00 | 0.00 | 49 | 1018.1 |
| 20260503233505 | 77 | 15 | 3.5 | 0.0 | 0.00 | 0.00 | 0.00 | 48 | 1018.4 |
| 20260503233005 | 77 | 17 | 7.8 | 0.0 | 0.00 | 0.00 | 0.00 | 48 | 1018.4 |
| 20260503232505 | 77 | 62 | 7.8 | 0.0 | 0.00 | 0.00 | 0.00 | 47 | 1018.4 |
| 20260503232004 | 77 | 3 | 11.3 | 0.0 | 0.00 | 0.00 | 0.00 | 47 | 1018.4 |
| 20260503231505 | 78 | 63 | 0.0 | 0.0 | 0.00 | 0.00 | 0.00 | 47 | 1018.4 |
| 20260503231005 | 78 | 32 | 3.5 | 0.0 | 0.00 | 0.00 | 0.00 | 46 | 1018.1 |
| 20260503230505 | 77 | 31 | 3.5 | 0.0 | 0.00 | 0.00 | 0.00 | 45 | 1018.4 |
| 20260503230005 | 77 | 72 | 0.0 | 0.0 | 0.00 | 0.00 | 0.00 | 47 | 1018.1 |
| 20260503225505 | 78 | 47 | 3.5 | 0.0 | 0.00 | 0.00 | 0.00 | 46 | 1018.4 |
| 20260503225005 | 77 | 78 | 11.3 | 0.0 | 0.00 | 0.00 | 0.00 | 46 | 1018.4 |
| 20260503224504 | 78 | 120 | 3.5 | 0.0 | 0.00 | 0.00 | 0.00 | 45 | 1018.4 |
| 20260503224005 | 79 | 59 | 7.8 | 0.0 | 0.00 | 0.00 | 0.00 | 44 | 1018.4 |
| 20260503223505 | 78 | 30 | 3.5 | 0.0 | 0.00 | 0.00 | 0.00 | 46 | 1018.4 |
| 20260503223005 | 77 | 35 | 7.8 | 0.0 | 0.00 | 0.00 | 0.00 | 46 | 1018.8 |
| 20260503222505 | 78 | 74 | 7.8 | 0.0 | 0.00 | 0.00 | 0.00 | 45 | 1018.8 |
| 20260503222213 | 79 | 27 | 11.3 | 0.0 | 0.00 | 0.00 | 0.00 | 44 | 1018.8 |
| 20260503221505 | 79 | 81 | 11.3 | 0.0 | 0.00 | 0.00 | 0.00 | 44 | 1018.8 |
| 20260503221005 | 79 | 72 | 11.3 | 0.0 | 0.00 | 0.00 | 0.00 | 44 | 1019.1 |
| 20260503220712 | 80 | 47 | 3.5 | 0.0 | 0.00 | 0.00 | 0.00 | 44 | 1018.8 |
| 20260503220005 | 78 | 88 | 0.0 | 0.0 | 0.00 | 0.00 | 0.00 | 47 | 1019.1 |
| 20260503215505 | 79 | 57 | 11.3 | 0.0 | 0.00 | 0.00 | 0.00 | 43 | 1019.1 |
| 20260503215005 | 80 | 57 | 0.0 | 0.0 | 0.00 | 0.00 | 0.00 | 44 | 1019.5 |
| 20260503214505 | 80 | 358 | 7.8 | 0.0 | 0.00 | 0.00 | 0.00 | 44 | 1019.5 |
| 20260503214004 | 80 | 87 | 11.3 | 0.0 | 0.00 | 0.00 | 0.00 | 43 | 1019.5 |
| 20260503213505 | 80 | 60 | 11.3 | 0.0 | 0.00 | 0.00 | 0.00 | 42 | 1019.5 |
| 20260503213005 | 80 | 79 | 7.8 | 0.0 | 0.00 | 0.00 | 0.00 | 43 | 1019.5 |
| 20260503212505 | 79 | 7 | 3.5 | 0.0 | 0.00 | 0.00 | 0.00 | 42 | 1019.5 |
| 20260503212005 | 80 | 7 | 11.3 | 0.0 | 0.00 | 0.00 | 0.00 | 41 | 1019.5 |
| 20260503211505 | 80 | 76 | 11.3 | 0.0 | 0.00 | 0.00 | 0.00 | 42 | 1019.5 |
| 20260503211005 | 80 | 42 | 7.8 | 0.0 | 0.00 | 0.00 | 0.00 | 43 | 1019.5 |
| 20260503210505 | 79 | 112 | 3.5 | 0.0 | 0.00 | 0.00 | 0.00 | 42 | 1019.5 |
| 20260503210005 | 80 | 81 | 11.3 | 0.0 | 0.00 | 0.00 | 0.00 | 42 | 1019.8 |
| 20260503205714 | 81 | 359 | 7.8 | 0.0 | 0.00 | 0.00 | 0.00 | 42 | 1019.5 |
| 20260503205005 | 80 | 114 | 0.0 | 0.0 | 0.00 | 0.00 | 0.00 | 42 | 1019.5 |